GALAXY 12 (G-12)

Last updated on Fri Dec 29 2023 00:02:43 GMT+0000 (Coordinated Universal Time)

1 27715U 03013B 23361.84578075 -.00000102 00000+0 00000+0 0 9990 2 27715 4.6784 79.5427 0002561 251.2137 174.7910 0.98983735 43033
UTC large
Height (km)
Speed (km/s)
/
Latitude / Longitude
Inclination (degrees)
Orbital Period (minutes)
Azimuth
Elevation
Range (km)
Doppler Factor

Next 0 passes for location: London (51.5072 / 0.1276)

Sorry there are no passes over London.
GALAXY 12 (G-12)